Location: Le Castellard
(44.1862°N, 6.1301°E)
Time: 21:27:44
(UTC+00:00)

STARLINK-54 - Pass Details

Date: 18 January 2020
Orbit: 528 x 531 km, 53.0° (Epoch: 18 February)

Event Time Altitude Azimuth Distance (km) Brightness Sun altitude
Rises 06:11:11 0° 226° (SW) 2,655 6.8 -9.9°
Reaches altitude 10° 06:13:24 10° 224° (SW) 1,769 6.0 -9.5°
Maximum altitude 06:17:22 66° 142° (SE) 580 4.0 -8.8°
Drops below altitude 10° 06:21:23 10° 60° (ENE) 1,781 6.8 -8.1°
Sets 06:23:37 0° 58° (ENE) 2,675 7.7 -7.8°
